This demonstration page uses our WeatherBlox Daily Observations layout. Learn more.

Left ArrowRight Arrow

Hourly Observations for April 23, 2020

Temp ( °F °C ) Dew Point ( °F °C ) Humidity (%) Winds ( mph kmh ) Pressure ( in mb ) Visibility ( mi km ) Precip ( " mm )
12:52 am 00:52 Cloudy 60 15.6 52 11.1 75 75 SSW 7 11 29.68 1005 10 16 0.00 0.00
1:52 am 01:52 Mostly Cloudy 55 12.8 51 10.6 87 87 SSE 13 20 29.68 1005 10 16 0.00 0.00
2:52 am 02:52 Mostly Clear 55 12.8 52 11.1 90 90 SSW 5 7 29.67 1005 10 16 0.00 0.00
3:52 am 03:52 Clear 51 10.6 49 9.4 92 92 SSE 3 6 29.65 1004 9 14 0.00 0.00
4:41 am 04:41 Partly Cloudy with Mist and Fog 52 11.1 51 10.6 97 97 WSW 6 9 29.67 1005 3 4 0.00 0.00
4:48 am 04:48 Mostly Cloudy with Mist and Fog 52 11 52 11 100 100 WSW 6 9 29.67 1005 2 2 0.00 0.00
4:52 am 04:52 Mostly Cloudy with Mist and Fog 52 11.1 51 10.6 97 97 WSW 7 11 29.65 1004 1 2 0.00 0.00
5:52 am 05:52 Cloudy with Mist and Fog 52 11.1 51 10.6 97 97 WNW 3 6 29.65 1004 1 2 0.00 0.00
6:43 am 06:43 Cloudy with Fog 51 10.6 50 10 96 96 NW 6 9 29.68 1005 1 1 0.00 0.00
6:52 am 06:52 Cloudy with Fog 50 10 50 10 100 100 NW 7 11 29.66 1005 1 1 0.00 0.00
7:06 am 07:06 Cloudy with Fog 50 10 49 9.4 96 96 NNW 7 11 29.69 1005 0 0 0.00 0.00
7:17 am 07:17 Mostly Cloudy with Fog 49 9.4 49 9.4 100 100 NNW 6 9 29.69 1006 1 1 0.00 0.00
7:31 am 07:31 Partly Cloudy with Mist and Fog 50 10 49 9.4 96 96 NW 5 7 29.69 1005 1 2 0.00 0.00
7:48 am 07:48 Partly Cloudy with Mist and Fog 52 11 48 9 88 88 NW 5 7 29.70 1006 3 5 0.00 0.00
7:52 am 07:52 Partly Cloudy with Mist and Fog 51 10.6 49 9.4 92 92 NW 5 7 29.68 1005 3 5 0.00 0.00
8:52 am 08:52 Sunny 55 12.8 50 10 83 83 Calm 29.68 1005 7 11 0.00 0.00
9:52 am 09:52 Sunny 63 17.2 47 8.3 56 56 N 7 11 29.67 1005 8 13 0.00 0.00
10:52 am 10:52 Sunny 69 20.6 46 7.8 44 44 NNE 6 9 29.67 1005 10 16 0.00 0.00
11:52 am 11:52 Sunny 73 22.8 43 6.1 34 34 Calm 29.66 1005 10 16 0.00 0.00
12:52 pm 12:52 Mostly Sunny 76 24.4 34 1.1 22 22 S 3 6 29.64 1004 10 16 0.00 0.00
1:52 pm 13:52 Partly Cloudy 80 26.7 31 -0.6 17 17 N 5 7 29.62 1003 10 16 0.00 0.00
2:52 pm 14:52 Partly Cloudy 78 25.6 33 0.6 19 19 SSW 7 11 29.60 1002 10 16 0.00 0.00
4:52 pm 16:52 Mostly Cloudy 77 25 35 1.7 22 22 WSW 8 13 29.58 1002 10 16 0.00 0.00
5:52 pm 17:52 Mostly Cloudy 75 23.9 37 2.8 25 25 W 8 13 29.59 1002 10 16 0.00 0.00
6:52 pm 18:52 Mostly Cloudy 73 22.8 42 5.6 33 33 NW 5 7 29.60 1002 10 16 0.00 0.00
7:52 pm 19:52 Cloudy 75 23.9 34 1.1 22 22 W 6 9 29.60 1003 10 16 0.00 0.00
8:52 pm 20:52 Cloudy 66 18.9 39 3.9 37 37 NW 8 13 29.62 1003 10 16 0.00 0.00
9:52 pm 21:52 Cloudy 69 20.6 39 3.9 33 33 NNW 14 22 29.67 1005 10 16 0.00 0.00
10:52 pm 22:52 Cloudy with Light Rain 67 19.4 42 5.6 41 41 N 13 20 29.69 1005 10 16 0.00 0.00
11:52 pm 23:52 Cloudy 62 16.7 46 7.8 56 56 N 15 24 29.70 1006 10 16 0.00 0.00

Powered by AerisWeather